STARLINK-32478, 61726

Orbit data source: Space-Track

STARLINK-32478, 61726 is a payload satellite owned by SpaceX/Seattle (US) in LEO that was launched on Wed, 30 Oct 2024 UTC via an FALCON 9 launch vehicle from the Air Force Eastern Test Range (AFETR). Payload-class satellites include a variety of spacecraft equipped with specific instruments for various scientific and technological missions. These include communications satellites like Starlink; space stations such as the ISS; scientific satellites like the Hubble; Earth observation satellites from companies like Planet Labs, Umbra, and HawkEye 360; GPS; miniature CubeSats for education and research; and military/defense satellites.

Loading next visibility...
Identifier
61726, 2024-196V
Orbit
LEO
Country
Flag of USUS
Related business
Manufacturer
SpaceX/Seattle
Mission
Operational Commercial Communications
Bus & Motor
STARLINK V2M, Unknown motor
Mass
730 kg wet, ~700 kg dry
Launch date (UTC)
2024-10-30 (1 year ago)
Launch vehicle
FALCON 9
Launch site
Air Force Eastern Test Range (AFETR)
Object type
Payload
Rocket body
Debris
Shape & HBR
Box + 2 Pan, 17.7 m
Radar Cross Section
33.884 m², Large (>1 m²)

Expand to show TLE details & history
Last TLE update: 1 day ago

TLE from 1 day ago
0 STARLINK-32478
1 61726U 24196V   25348.70156732 -.00003443  00000-0 -10435-3 0  9999
2 61726  53.1604 136.1638 0000882  88.0728 272.0374 15.30155233 64140
Epoch: 2025-12-14T16:50Z
TLE epoch observation values (Epoch: 2025-12-14T16:50:15.416Z)
Latitude
Longitude
159.98886°
Altitude
476.227 km
Speed
7.629 km/s
True Right ascension
09h 04m 39s
True Declination
0° 00' 00"
Sunlit
Object was in full shadow at epoch
Visualization orbit readout
Latitude
Unknown
Longitude
Unknown
Altitude
Unknown
Speed
Unknown
Apparent Right ascension
Unknown
Apparent Declination
Unknown
Sunlit
N/A
Visualization observer readout
Local Sidereal Time
22:04:18
Azimuth
Unknown
Elevation
Unknown
Doppler factor
Unknown
Orbital elements
Apogee altitude
476.21 km
Perigee altitude
475.001 km
Semi-major axis
6,853.742 km
Eccentricity
0.00009
Inclination
53.1604°
RAAN
136.1638°
Arg. of periapsis
88.0728°
True anomaly
272.0273°
Mean anomaly
272.0374°
Eccentric anomaly
272.03235°
Mean motion
3.82518 °/min
Orbital period
94.11 mins
BSTAR
-0.00010435
Loading maneuver chart data...
Computing Atmospheric mass density...
Loading historical data...
Loading historical data...
Loading historical data...
Loading historical data...
Loading historical data...
Loading historical data...
Loading historical data...

Documentation

Showing up to 5 results
|